Luke Air Force Base, AZ

1:04 PM MST on September 27, 2016 (GMT -0700)
Luke Air Force Base

Weather History for KLUF - March, 2013

Change the Weather History Date:

Thursday, March 14, 2013

  Actual Average Record
Temperature  
Mean Temperature 73 °F -  
Max Temperature 92 °F 75 °F 92 °F (1972)
Min Temperature 54 °F 44 °F 30 °F (1990)
Cooling Degree Days 8    
Growing Degree Days 23 (Base 50)    
Moisture  
Dew Point 38 °F    
Average Humidity 36    
Maximum Humidity 65    
Minimum Humidity 8    
Precipitation  
Precipitation 0.00 in - - ()
Sea Level Pressure  
Sea Level Pressure 30.00 in    
Wind  
Wind Speed 5 mph (NNE)    
Max Wind Speed 10 mph    
Max Gust Speed -    
Visibility 10 miles    
Events      
Averages and records for this station are not official NWS values.
T = Trace of Precipitation, MM = Missing Value Source: NWS Daily Summary

Daily Weather History Graph

Daily Weather History Graph

Search for Another Location

Airport or City:

Trip Planner

Search our weather history database for the weather conditions in past years. The results will help you decide how hot, cold, wet, or windy it might be!

Date:

Astronomy

Mar. 14, 2013 Rise Set
Actual Time 6:40 AM MST 6:36 PM MST
Civil Twilight 6:16 AM MST 7:01 PM MST
Nautical Twilight 5:47 AM MST 7:30 PM MST
Astronomical Twilight 5:18 AM MST 7:59 PM MST
Moon 8:07 AM MST (3/14) 9:44 PM MST (3/14)
Length of Visible Light 12h 45m
Length of Day
11h 56m
Waxing Crescent, 9% of the Moon is Illuminated
Mar 14
Waxing Crescent
Mar 19
First Quarter
Mar 27
Full
Apr 2
Last Quarter
Apr 10
New

Hourly Weather History & Observations

Time (MST) Temp. Dew Point Humidity Pressure Visibility Wind Dir Wind Speed Gust Speed Precip Events Conditions
12:58 AM 63.0 °F 45.1 °F 52% 30.05 in 10.0 mi North 6.9 mph - N/A   Clear
1:58 AM 62.1 °F 44.4 °F 52% 30.03 in 10.0 mi NNE 2.3 mph - N/A   Clear
2:58 AM 57.2 °F 45.5 °F 65% 30.01 in 10.0 mi NNW 5.8 mph - N/A   Clear
3:58 AM 57.6 °F 44.1 °F 61% 30.01 in 10.0 mi North 5.8 mph - N/A   Clear
4:58 AM 56.3 °F 42.8 °F 61% 30.03 in 10.0 mi NE 2.3 mph - N/A   Clear
5:58 AM 54.9 °F 42.3 °F 63% 30.05 in 10.0 mi NNW 6.9 mph - N/A   Clear
6:58 AM 55.8 °F 40.1 °F 56% 30.06 in 10.0 mi North 5.8 mph - N/A   Clear
7:58 AM 59.4 °F 42.1 °F 53% 30.08 in 10.0 mi North 3.5 mph - N/A   Clear
8:58 AM 68.0 °F 42.3 °F 39% 30.09 in 10.0 mi ENE 2.3 mph - N/A   Clear
9:58 AM 74.8 °F 37.2 °F 26% 30.09 in 10.0 mi NE 2.3 mph - N/A   Clear
11:58 AM 84.9 °F 32.7 °F 15% 30.06 in 10.0 mi East 5.8 mph - N/A   Clear
12:58 PM 87.8 °F 33.4 °F 14% 30.04 in 10.0 mi SE 6.9 mph - N/A   Clear
1:58 PM 90.7 °F 32.2 °F 12% 29.99 in 10.0 mi ESE 8.1 mph - N/A   Clear
2:58 PM 91.4 °F 25.7 °F 9% 29.97 in 10.0 mi East 4.6 mph - N/A   Clear
3:58 PM 92.3 °F 23.5 °F 8% 29.95 in 10.0 mi East 10.4 mph - N/A   Clear
4:58 PM 91.8 °F 25.9 °F 9% 29.95 in 10.0 mi East 4.6 mph - N/A   Clear
5:58 PM 90.9 °F 27.1 °F 10% 29.94 in 10.0 mi Calm Calm - N/A   Clear
6:58 PM 83.8 °F 36.3 °F 18% 29.94 in 10.0 mi WSW 5.8 mph - N/A   Clear
7:58 PM 75.2 °F 44.6 °F 34% 29.94 in 10.0 mi NW 9.2 mph - N/A   Clear
8:58 PM 69.3 °F 44.1 °F 40% 29.95 in 10.0 mi NNW 6.9 mph - N/A   Clear
9:58 PM 67.3 °F 44.2 °F 43% 29.96 in 10.0 mi North 5.8 mph - N/A   Clear
10:58 PM 68.5 °F 43.3 °F 40% 29.96 in 10.0 mi North 8.1 mph - N/A   Clear
11:58 PM 66.2 °F 42.3 °F 42% 29.95 in 10.0 mi North 8.1 mph - N/A   Clear